Date String (YYYY-MM-DD hh:mm:ss) UTC,Instrument flags,Ambient pressure (hPa),Sample flow (lpm),Bypass flow (lpm),Sample temperature (°C),Ambient temperature (°C),ASC tube jacket temperature (°C),LED temperature (°C),Box temperature (°C),Sample RH (%),Span deviation,Mass concentration (μg/m³),Mass concentration (μg/m³),Mass concentration (μg/m³)
DateTimeUTC,F1_M11,P_M11,Q1_M11,Q2_M11,T1_M11,T2_M11,T3_M11,T4_M11,T5_M11,U1_M11,ZSPAN_M11,X2_M11,X0_M11,X1_M11
2022-10-12 18:00:00,,0828.4,5.01,0.00,30.7,29.4,00.0,39.5,32.5,14.4,0000.0,0008.20,0019.14,0006.71
2022-10-12 18:01:00,,0828.4,5.00,0.00,30.8,29.4,00.0,39.5,32.6,14.1,-000.1,0008.22,0019.95,0006.73
2022-10-12 18:02:00,,0828.5,5.00,0.00,30.8,29.5,00.0,39.5,32.6,14.3,-000.2,0008.30,0020.83,0006.74
2022-10-12 18:03:00,,0828.3,5.00,0.00,30.8,29.5,00.0,39.5,32.6,14.7,-000.1,0008.28,0021.07,0006.75
2022-10-12 18:04:00,,0828.3,5.01,0.00,30.8,29.5,00.0,39.5,32.6,14.7,-000.4,0008.30,0021.35,0006.80
2022-10-12 18:05:00,,0828.2,5.02,0.00,30.8,29.5,00.0,39.5,32.6,14.5,-000.3,0008.36,0022.28,0006.83
2022-10-12 18:06:00,,0828.2,5.01,0.00,30.8,29.5,00.0,39.5,32.6,14.2,-000.1,0008.36,0021.64,0006.84
2022-10-12 18:07:00,,0828.3,5.00,0.00,30.8,29.5,00.0,39.5,32.6,14.0,-000.2,0008.42,0020.95,0006.86
2022-10-12 18:08:00,,0828.3,5.00,0.00,30.8,29.5,00.0,39.5,32.6,14.2,-000.2,0008.47,0020.88,0006.87
2022-10-12 18:09:00,,0828.3,5.01,0.00,30.8,29.6,00.0,39.6,32.7,14.5,0000.0,0008.49,0021.20,0006.86
2022-10-12 18:10:00,,0828.3,5.00,0.00,30.8,29.6,00.0,39.6,32.7,14.7,0000.4,0008.53,0022.00,0006.86
2022-10-12 18:11:00,,0828.3,5.00,0.00,30.9,29.6,00.0,39.6,32.7,14.3,0000.7,0008.57,0022.70,0006.86
2022-10-12 18:12:00,,0828.3,4.98,0.00,30.9,29.6,00.0,39.6,32.7,14.2,0000.7,0008.63,0022.91,0006.88
2022-10-12 18:13:00,,0828.3,5.02,0.00,30.9,29.6,00.0,39.6,32.8,14.2,0000.7,0008.61,0022.71,0006.89
2022-10-12 18:14:00,,0828.3,5.00,0.00,30.9,29.7,00.0,39.6,32.8,14.8,0000.6,0008.66,0023.50,0006.90
2022-10-12 18:15:00,,0828.3,4.99,0.00,30.9,29.7,00.0,39.6,32.8,14.6,0000.7,0008.69,0024.14,0006.87
2022-10-12 18:16:00,,0828.4,5.01,0.00,30.9,29.7,00.0,39.6,32.8,14.5,0001.3,0008.71,0024.09,0006.86
2022-10-12 18:17:00,,0828.3,5.00,0.00,30.9,29.7,00.0,39.7,32.8,14.7,0001.8,0008.70,0023.99,0006.86
2022-10-12 18:18:00,,0828.4,5.00,0.00,30.9,29.7,00.0,39.7,32.8,13.9,0002.0,0008.70,0024.26,0006.84
2022-10-12 18:19:00,,0828.4,4.99,0.00,31.0,29.4,00.0,39.7,32.8,13.7,0002.1,0008.66,0024.22,0006.84
2022-10-12 18:20:00,,0828.3,4.99,0.00,31.0,28.1,00.0,39.6,32.7,13.7,0002.0,0008.70,0024.62,0006.83
2022-10-12 18:21:00,,0828.4,5.01,0.00,30.9,27.1,00.0,39.6,32.6,13.7,0001.4,0008.69,0024.13,0006.82
2022-10-12 18:22:00,,0828.3,5.00,0.00,30.8,27.1,00.0,39.5,32.5,13.7,0001.4,0008.68,0024.32,0006.82
2022-10-12 18:23:00,,0828.3,4.99,0.00,30.7,27.4,00.0,39.5,32.3,13.9,0001.7,0008.62,0024.05,0006.78
2022-10-12 18:24:00,,0828.2,5.02,0.00,30.6,27.7,00.0,39.5,32.3,14.3,0002.0,0008.55,0023.92,0006.77
2022-10-12 18:25:00,,0828.2,4.99,0.00,30.6,28.0,00.0,39.4,32.2,14.5,0001.9,0008.50,0023.99,0006.75
2022-10-12 18:26:00,,0828.2,5.00,0.00,30.6,28.3,00.0,39.4,32.2,14.3,0002.0,0008.46,0023.15,0006.74
2022-10-12 18:27:00,,0828.2,5.01,0.00,30.5,28.5,00.0,39.4,32.3,14.2,0001.9,0008.40,0023.28,0006.72
2022-10-12 18:28:00,,0828.2,5.00,0.00,30.5,28.6,00.0,39.4,32.3,13.8,0001.7,0008.37,0023.78,0006.69
2022-10-12 18:29:00,,0828.2,5.00,0.00,30.5,28.7,00.0,39.4,32.3,14.0,0001.5,0008.39,0023.66,0006.68
2022-10-12 18:30:00,,0828.3,5.00,0.00,30.5,28.8,00.0,39.4,32.3,14.6,0001.6,0008.41,0023.74,0006.68
2022-10-12 18:31:00,,0828.2,5.01,0.00,30.5,28.9,00.0,39.3,32.3,14.6,0001.5,0008.40,0023.80,0006.70
2022-10-12 18:32:00,,0828.3,4.99,0.00,30.5,29.0,00.0,39.3,32.3,14.6,0002.0,0008.43,0023.95,0006.69
2022-10-12 18:33:00,,0828.2,5.01,0.00,30.5,29.1,00.0,39.3,32.4,13.9,0001.7,0008.42,0023.15,0006.65
2022-10-12 18:34:00,,0828.1,4.99,0.00,30.5,29.1,00.0,39.3,32.4,13.8,0001.5,0008.45,0023.50,0006.65
2022-10-12 18:35:00,,0828.2,5.01,0.00,30.5,29.2,00.0,39.3,32.4,13.7,0001.4,0008.44,0024.31,0006.63
2022-10-12 18:36:00,,0828.1,5.01,0.00,30.5,29.2,00.0,39.3,32.4,13.8,0001.2,0008.42,0023.09,0006.61
2022-10-12 18:37:00,,0828.2,5.00,0.00,30.6,29.2,00.0,39.3,32.4,13.9,0001.1,0008.37,0022.98,0006.60
2022-10-12 18:38:00,,0828.2,4.99,0.00,30.6,29.3,00.0,39.3,32.4,14.0,0000.8,0008.35,0023.51,0006.61
2022-10-12 18:39:00,,0828.2,5.00,0.00,30.6,29.3,00.0,39.4,32.4,13.9,0000.8,0008.42,0023.55,0006.63
2022-10-12 18:40:00,,0828.2,5.00,0.00,30.6,29.3,00.0,39.4,32.5,13.9,0000.6,0008.46,0024.79,0006.64
2022-10-12 18:41:00,,0828.2,5.01,0.00,30.6,29.4,00.0,39.4,32.5,13.9,0000.1,0008.47,0026.13,0006.64
2022-10-12 18:42:00,,0828.2,5.00,0.00,30.6,29.4,00.0,39.4,32.5,14.1,0000.1,0008.52,0027.41,0006.63
2022-10-12 18:43:00,,0828.2,5.00,0.00,30.7,29.4,00.0,39.4,32.5,14.1,-000.2,0008.49,0027.61,0006.64
2022-10-12 18:44:00,,0828.1,4.99,0.00,30.7,29.4,00.0,39.4,32.6,13.9,0000.0,0008.52,0027.70,0006.71
2022-10-12 18:45:00,,0828.2,4.99,0.00,30.7,29.5,00.0,39.4,32.6,13.8,-000.1,0008.61,0026.55,0006.77
2022-10-12 18:46:00,,0828.3,5.01,0.00,30.7,29.5,00.0,39.4,32.6,14.1,-000.2,0008.67,0026.51,0006.83
2022-10-12 18:47:00,,0828.1,5.01,0.00,30.7,29.6,00.0,39.5,32.6,14.3,0000.1,0008.79,0027.03,0006.87
2022-10-12 18:48:00,,0828.1,5.00,0.00,30.8,29.6,00.0,39.5,32.6,14.0,0000.5,0008.86,0026.79,0006.91
2022-10-12 18:49:00,,0828.1,4.99,0.00,30.8,29.6,00.0,39.5,32.6,13.9,0000.6,0008.89,0026.27,0006.93
2022-10-12 18:50:00,,0828.1,4.99,0.00,30.8,29.6,00.0,39.5,32.6,14.1,0000.7,0008.84,0026.32,0006.95
2022-10-12 18:51:00,,0828.0,5.00,0.00,30.8,28.4,00.0,39.5,32.6,14.1,0001.0,0008.83,0026.04,0006.97
2022-10-12 18:52:00,,0828.0,5.00,0.00,30.7,27.0,00.0,39.4,32.4,14.2,0001.6,0008.87,0025.38,0007.01
2022-10-12 18:53:00,,0828.0,5.00,0.00,30.7,26.7,00.0,39.4,32.3,14.1,0001.7,0008.89,0024.41,0007.05
2022-10-12 18:54:00,,0827.9,5.01,0.00,30.6,26.9,00.0,39.3,32.1,14.2,0001.4,0008.96,0024.54,0007.08
2022-10-12 18:55:00,,0827.9,4.98,0.00,30.5,27.3,00.0,39.3,32.0,14.3,0001.4,0008.95,0024.19,0007.08
2022-10-12 18:56:00,,0828.0,5.02,0.00,30.4,27.6,00.0,39.3,32.0,14.4,0001.8,0008.89,0025.71,0007.05
2022-10-12 18:57:00,,0827.9,4.99,0.00,30.4,27.9,00.0,39.2,32.1,14.6,0001.7,0008.87,0026.39,0007.02
2022-10-12 18:58:00,,0827.9,5.00,0.00,30.3,28.2,00.0,39.2,32.1,14.5,0001.8,0008.79,0025.69,0007.00
2022-10-12 18:59:00,,0827.9,5.00,0.00,30.3,28.3,00.0,39.2,32.1,14.5,0001.2,0008.79,0025.99,0006.98
